Find Starlink 33941

NORAD ID: 63765 Int'l Des: 2025-089 Owner: SPXS Country: US Constellation: starlink operational
LEOCIRCULAR

当前视图

正在加载3D地球...

About Starlink 33941

Starlink 33941 (NORAD 63765) is a starlink constellation satellite (v2 mini) launched Apr 29, 2025 by SPXS of US. It operates in LEO, CIRCULAR orbit with a mass of 575.00 kg.

关于 Starlink 33941

正在加载描述...

即将过境

Passes for default location (London). Set your location on the main map for personalized predictions.

高度历史

Loading altitude history...

两行轨道根数

1 63765U 25089Q 26171.33247624 .00013860 00000-0 51202-3 0 9990
2 63765 42.9992 185.7166 0000756 258.9887 101.0880 15.27594170 64642
Epoch: Jun 20, 2026 • Age: 50 hours

当前状态

高度 492.1 km
速度 7.62 km/s
星下点 -34.15°S, 67.69°E
发射日期 Apr 29, 2025
运行时间 1.1 years
类型 internet

技术详情

分类 Payload
质量 575.00 kg
干质量 530.00 kg
总质量 575.00 kg
长度 0.30 m
直径 4.10 m
跨度 29.00 m
形状 Box + pan
制造商 SPXS
平台类型 Starlink V2MO
阶段状态 In Orbit
所有者/国家 SPXS/US

Most Searched